TimeMST,TemperatureF,Dew PointF,Humidity,Sea Level PressureIn,VisibilityMPH,Wind Direction,Wind SpeedMPH,Gust SpeedMPH,PrecipitationIn,Events,Conditions,WindDirDegrees,DateUTC
12:53 AM,32.0,21.9,66,30.27,10.0,SW,15.0,-,N/A,,Clear,220,2013-02-02 07:53:00
1:53 AM,30.2,21.2,69,30.18,10.0,SW,12.7,-,N/A,,Clear,220,2013-02-02 08:53:00
2:53 AM,32.0,21.9,66,30.27,10.0,SW,13.8,-,N/A,,Clear,220,2013-02-02 09:53:00
3:53 AM,32.0,21.9,66,30.27,10.0,SW,15.0,-,N/A,,Clear,220,2013-02-02 10:53:00
5:53 AM,32.0,21.9,66,30.34,10.0,SSW,13.8,-,N/A,,Clear,210,2013-02-02 12:53:00
6:53 AM,33.1,23.0,66,30.35,10.0,SSW,13.8,-,N/A,,Clear,210,2013-02-02 13:53:00
7:53 AM,34.0,23.0,64,30.37,10.0,SW,15.0,-,N/A,,Clear,220,2013-02-02 14:53:00
8:53 AM,36.0,24.1,62,30.38,10.0,SW,12.7,-,N/A,,Clear,230,2013-02-02 15:53:00
9:53 AM,39.9,25.0,55,30.38,10.0,SW,12.7,-,N/A,,Clear,220,2013-02-02 16:53:00
10:53 AM,45.0,25.0,46,30.36,10.0,SW,16.1,-,N/A,,Clear,230,2013-02-02 17:53:00
11:53 AM,46.9,25.0,42,30.35,10.0,WSW,15.0,27.6,N/A,,Clear,240,2013-02-02 18:53:00
12:53 PM,48.0,24.1,39,30.32,10.0,WSW,20.7,-,N/A,,Clear,240,2013-02-02 19:53:00
1:53 PM,48.9,24.1,38,30.30,10.0,SW,16.1,-,N/A,,Clear,230,2013-02-02 20:53:00
2:53 PM,48.9,24.1,38,30.28,10.0,SW,18.4,-,N/A,,Clear,230,2013-02-02 21:53:00
3:53 PM,48.0,24.1,39,30.27,10.0,SSW,17.3,25.3,N/A,,Clear,210,2013-02-02 22:53:00
4:53 PM,45.0,24.1,44,30.27,10.0,SW,10.4,-,N/A,,Clear,230,2013-02-02 23:53:00
5:53 PM,39.0,24.1,55,30.29,10.0,SW,13.8,-,N/A,,Clear,230,2013-02-03 00:53:00
6:53 PM,37.9,24.1,57,30.27,10.0,SW,15.0,-,N/A,,Clear,220,2013-02-03 01:53:00
7:53 PM,36.0,23.0,59,30.27,10.0,SSW,13.8,-,N/A,,Clear,210,2013-02-03 02:53:00
8:53 PM,36.0,23.0,59,30.25,10.0,SW,12.7,-,N/A,,Clear,220,2013-02-03 03:53:00
9:53 PM,39.0,23.0,53,30.20,10.0,SW,17.3,-,N/A,,Clear,220,2013-02-03 04:53:00
10:53 PM,39.9,21.9,49,30.16,10.0,SSW,18.4,-,N/A,,Clear,210,2013-02-03 05:53:00
11:53 PM,37.9,21.9,53,30.15,10.0,SSW,15.0,-,N/A,,Clear,210,2013-02-03 06:53:00